| time (UTC) | temp F | wind direction | speed knots | gust knots | rain 1hr in | rain 24hr in | rain mn in | humidity % | barometer mb |
| 20260506073048 | 63 | 165 | 0.0 | 2.6 | 0.00 | 0.00 | 0.00 | 72 | 1011.9 |
| 20260506071515 | 64 | 126 | 0.9 | 2.6 | 0.00 | 0.00 | 0.00 | 72 | 1011.9 |
| 20260506061538 | 64 | 165 | 0.0 | 0.0 | 0.00 | 0.00 | 0.00 | 72 | 1012.2 |
| 20260506044550 | 67 | 179 | 0.0 | 0.0 | 0.00 | 0.00 | 0.00 | 70 | 1012.6 |
| 20260506043023 | 67 | 157 | 0.0 | 3.5 | 0.00 | 0.00 | 0.00 | 70 | 1012.8 |
| 20260506041519 | 68 | 165 | 0.9 | 3.5 | 0.00 | 0.00 | 0.00 | 69 | 1012.8 |
| 20260506040019 | 68 | 205 | 1.7 | 3.5 | 0.00 | 0.00 | 0.00 | 69 | 1012.7 |
| 20260506034537 | 68 | 172 | 0.9 | 3.5 | 0.00 | 0.00 | 0.00 | 68 | 1012.8 |
| 20260506033015 | 68 | 165 | 0.0 | 0.0 | 0.00 | 0.00 | 0.00 | 67 | 1012.7 |
| 20260506031544 | 68 | 173 | 0.0 | 0.0 | 0.00 | 0.00 | 0.00 | 65 | 1012.7 |
| 20260506030040 | 69 | 162 | 0.0 | 0.0 | 0.00 | 0.00 | 0.00 | 63 | 1012.7 |
| 20260506024535 | 70 | 176 | 0.0 | 0.0 | 0.00 | 0.00 | 0.00 | 62 | 1012.7 |
| 20260506023040 | 70 | 166 | 0.0 | 0.0 | 0.00 | 0.00 | 0.00 | 61 | 1012.7 |
| 20260506021533 | 70 | 188 | 0.0 | 2.6 | 0.00 | 0.00 | 0.00 | 61 | 1012.6 |
| 20260506020031 | 70 | 217 | 0.0 | 0.0 | 0.00 | 0.00 | 0.00 | 60 | 1012.4 |
| 20260506014529 | 70 | 166 | 0.0 | 0.0 | 0.00 | 0.00 | 0.00 | 59 | 1012.2 |
| 20260506013025 | 71 | 168 | 0.0 | 0.0 | 0.00 | 0.00 | 0.00 | 58 | 1012.0 |
| 20260506011522 | 71 | 166 | 0.0 | 0.0 | 0.00 | 0.00 | 0.00 | 57 | 1011.8 |
| 20260506010019 | 72 | 169 | 0.0 | 0.0 | 0.00 | 0.00 | 0.00 | 56 | 1011.8 |
| 20260506004529 | 72 | 219 | 0.0 | 2.6 | 0.00 | 0.00 | 0.00 | 55 | 1011.5 |
| 20260506003011 | 73 | 169 | 0.9 | 2.6 | 0.00 | 0.00 | 0.00 | 53 | 1011.5 |
| 20260506001508 | 74 | 165 | 0.0 | 0.0 | 0.00 | 0.00 | 0.00 | 52 | 1011.4 |
| 20260506000004 | 75 | 144 | 0.0 | 0.0 | 0.00 | 0.00 | 0.00 | 50 | 1011.3 |
| 20260505234502 | 76 | 163 | 0.0 | 2.6 | 0.00 | 0.00 | 0.00 | 49 | 1011.4 |
| 20260505233102 | 76 | 176 | 0.9 | 4.3 | 0.00 | 0.00 | 0.00 | 48 | 1011.2 |
| 20260505231553 | 77 | 174 | 0.0 | 4.3 | 0.00 | 0.00 | 0.00 | 47 | 1011.3 |
| 20260505230051 | 77 | 169 | 0.9 | 3.5 | 0.00 | 0.00 | 0.00 | 47 | 1011.2 |
| 20260505224550 | 77 | 172 | 1.7 | 4.3 | 0.00 | 0.00 | 0.00 | 46 | 1011.6 |
| 20260505223016 | 78 | 184 | 0.9 | 4.3 | 0.00 | 0.00 | 0.00 | 44 | 1011.7 |
| 20260505221516 | 79 | 176 | 1.7 | 4.3 | 0.00 | 0.00 | 0.00 | 44 | 1011.5 |
| 20260505220020 | 80 | 159 | 1.7 | 6.1 | 0.00 | 0.00 | 0.00 | 42 | 1011.4 |
| 20260505214505 | 81 | 188 | 0.9 | 4.3 | 0.00 | 0.00 | 0.00 | 41 | 1011.4 |
| 20260505213004 | 82 | 181 | 0.9 | 3.5 | 0.00 | 0.00 | 0.00 | 40 | 1011.4 |
| 20260505211505 | 81 | 162 | 1.7 | 5.2 | 0.00 | 0.00 | 0.00 | 39 | 1011.5 |
| 20260505210100 | 81 | 167 | 0.0 | 5.2 | 0.00 | 0.00 | 0.00 | 38 | 1011.5 |
| 20260505204603 | 82 | 179 | 1.7 | 7.8 | 0.00 | 0.00 | 0.00 | 36 | 1011.4 |
| 20260505203055 | 83 | 177 | 0.9 | 5.2 | 0.00 | 0.00 | 0.00 | 35 | 1011.3 |
| 20260505201551 | 85 | 269 | 1.7 | 4.3 | 0.00 | 0.00 | 0.00 | 32 | 1011.4 |
| 20260505200048 | 85 | 231 | 0.0 | 4.3 | 0.00 | 0.00 | 0.00 | 31 | 1011.5 |
| 20260505194547 | 85 | 211 | 2.6 | 7.0 | 0.00 | 0.00 | 0.00 | 31 | 1011.5 |
| 20260505193048 | 87 | 181 | 1.7 | 5.2 | 0.00 | 0.00 | 0.00 | 31 | 1011.7 |
| 20260505191553 | 85 | 243 | 1.7 | 6.1 | 0.00 | 0.00 | 0.00 | 29 | 1012.0 |
| 20260505190038 | 86 | 172 | 2.6 | 7.8 | 0.00 | 0.00 | 0.00 | 29 | 1012.4 |
| 20260505184536 | 86 | 155 | 1.7 | 4.3 | 0.00 | 0.00 | 0.00 | 31 | 1012.6 |
| 20260505183032 | 85 | 165 | 1.7 | 5.2 | 0.00 | 0.00 | 0.00 | 32 | 1012.6 |
| 20260505181529 | 85 | 101 | 1.7 | 6.1 | 0.00 | 0.00 | 0.00 | 30 | 1012.9 |
| 20260505180104 | 85 | 186 | 2.6 | 5.2 | 0.00 | 0.00 | 0.00 | 29 | 1013.1 |
| 20260505174611 | 84 | 169 | 3.5 | 9.6 | 0.00 | 0.00 | 0.00 | 31 | 1013.2 |
| 20260505173052 | 84 | 213 | 0.9 | 4.3 | 0.00 | 0.00 | 0.00 | 32 | 1013.4 |
| 20260505171551 | 84 | 200 | 0.9 | 6.1 | 0.00 | 0.00 | 0.00 | 32 | 1013.4 |
| 20260505170122 | 84 | 203 | 2.6 | 6.1 | 0.00 | 0.00 | 0.00 | 33 | 1013.5 |
| 20260505164551 | 84 | 169 | 0.0 | 3.5 | 0.00 | 0.00 | 0.00 | 36 | 1013.6 |
| 20260505163020 | 83 | 241 | 0.9 | 5.2 | 0.00 | 0.00 | 0.00 | 37 | 1013.7 |
| 20260505161513 | 82 | 162 | 1.7 | 4.3 | 0.00 | 0.00 | 0.00 | 41 | 1013.9 |
| 20260505153008 | 81 | 151 | 0.0 | 1.7 | 0.00 | 0.00 | 0.00 | 46 | 1014.3 |
| 20260505151507 | 79 | 148 | 0.9 | 2.6 | 0.00 | 0.00 | 0.00 | 48 | 1014.4 |
| 20260505124553 | 62 | 170 | 0.0 | 1.7 | 0.00 | 0.00 | 0.00 | 71 | 1014.6 |
| 20260505123109 | 62 | 162 | 0.9 | 3.5 | 0.00 | 0.00 | 0.00 | 71 | 1014.6 |
| 20260505121551 | 60 | 172 | 0.9 | 2.6 | 0.00 | 0.00 | 0.00 | 71 | 1014.4 |
| 20260505120050 | 59 | 162 | 0.0 | 1.7 | 0.00 | 0.00 | 0.00 | 71 | 1014.4 |
| 20260505114609 | 59 | 155 | 0.0 | 0.0 | 0.00 | 0.00 | 0.00 | 71 | 1014.2 |
| 20260505113046 | 59 | 158 | 0.0 | 0.0 | 0.00 | 0.00 | 0.00 | 70 | 1014.0 |
| 20260505111558 | 0 | 0.0 | 0.0 | 0.00 | 0.00 | 0.00 | 1013.9 | ||
| 20260505101532 | 0 | 0.0 | 0.0 | 0.00 | 0.00 | 0.00 | 1013.5 | ||
| 20260505100021 | 0 | 0.0 | 0.0 | 0.00 | 0.00 | 0.00 | 1013.4 | ||
| 20260505094513 | 0 | 0.0 | 0.0 | 0.00 | 0.00 | 0.00 | 1013.3 | ||
| 20260505093011 | 0 | 0.0 | 0.0 | 0.00 | 0.00 | 0.00 | 1013.3 | ||
| 20260505091507 | 0 | 0.0 | 0.0 | 0.00 | 0.00 | 0.00 | 1013.3 | ||
| 20260505090004 | 56 | 154 | 0.0 | 0.0 | 0.00 | 0.00 | 0.00 | 71 | 1013.2 |
| 20260505084600 | 56 | 160 | 0.0 | 0.0 | 0.00 | 0.00 | 0.00 | 72 | 1013.2 |
| 20260505083108 | 57 | 160 | 0.0 | 0.0 | 0.00 | 0.00 | 0.00 | 72 | 1013.3 |
| 20260505081558 | 58 | 160 | 0.0 | 0.0 | 0.00 | 0.00 | 0.00 | 72 | 1013.2 |